Volver al catálogo

SITRO-AIS-19

ActivoNavegaciónSSO
NORAD 61759·PAYLOAD·🇷🇺 Russia
Este nombre de satélite aún no ha sido confirmado por fuentes oficiales.

Lanzado Nov 4, 2024 desde Vostochny Cosmodrome

Loading…

Próximos Pases (próximas 24 horas)

TLE

ActualizadoSource: Space-Track

Época: Sep 14, 2026, 14:35 UTC

1 61759U 24199AA  26257.60772252  .00001994  00000-0  17210-3 0  9993
2 61759  97.3181  91.6480 0007055 122.4587 237.7320 14.98289489148529

Sigue SITRO-AIS-19 en tiempo real con AllMySat

Download on the App Store